Regional Weather Roundup
Issued by NWS

Home | Current Version | Previous Version | Graphics & Text | Print | Product List | Glossary On
Versions: 1 2 3 4 5 6 7 8 9 10 11 12 13 14 15 16 17 18 19 20 21 22 23 24 25 26 27 28 29 30 31 32 33 34 35 36 37 38 39 40 41 42 43 44 45 46 47 48 49 50
000
ASUS43 KBIS 281420
RWRND

NORTH DAKOTA REGIONAL WEATHER ROUNDUP
NATIONAL WEATHER SERVICE BISMARCK ND
900 AM CDT MON JUL 28 2014

NOTE: "FAIR" INDICATES FEW OR NO CLOUDS BELOW 12,000 FEET WITH NO
SIGNIFICANT WEATHER AND/OR OBSTRUCTIONS TO VISIBILITY.


NDZ001>003-009>011-017-281500-
NORTHWEST NORTH DAKOTA

CITY           SKY/WX    TMP DP  RH WIND       PRES   REMARKS
WILLISTON      SUNNY     61  53  75 SE3       30.33R
MINOT          MOSUNNY   62  53  72 VRB3      30.33S
MINOT AFB      MOSUNNY   59  58  94 VRB1      30.33R
$$

NDZ018>021-031>035-040>046-281500-
SOUTHWEST NORTH DAKOTA

CITY           SKY/WX    TMP DP  RH WIND       PRES   REMARKS
BISMARCK       SUNNY     59  51  75 CALM      30.35S
DICKINSON      SUNNY     60  53  77 S10       30.33S
GARRISON         N/A     60  57  89 CALM      30.34R
HETTINGER ARPT SUNNY     59  52  77 S3        30.36S
$$

NDZ004>008-012>016-024-026-027-054-281500-
NORTHEAST NORTH DAKOTA

CITY           SKY/WX    TMP DP  RH WIND       PRES   REMARKS
GRAND FORKS    CLOUDY    62  55  77 NW7       30.27S
GRND FRKS AFB  CLOUDY    62  57  83 NW8       30.29R
DEVILS LAKE    SUNNY     63  54  72 NW9       30.31S
$$

NDZ022-023-025-028>030-036>039-047>053-281500-
SOUTHEAST NORTH DAKOTA

CITY           SKY/WX    TMP DP  RH WIND       PRES   REMARKS
FARGO          CLOUDY    62  56  80 NW7       30.28R
JAMESTOWN      PTSUNNY   61  54  77 N7        30.32S
$$




USA.gov is the U.S. government's official web portal to all federal, state and local government web resources and services.